Location: Newark
(38.7000°N, 9.1833°W)
Time: 19:17:02
(UTC+00:00)

OTV 5 (USA 277) - Visible Passes

Search period start: 16 October 2019 00:00
Search period end: 26 October 2019 00:00
Orbit: 310 x 324 km, 54.5° (Epoch: 08 October)

Date Brightness Start Highest point End Pass type
(mag) Time Alt. Az. Time Alt. Az. Time Alt. Az.
17 Oct ? 05:53:35 10° NNW 05:55:35 18° NNE 05:57:35 10° E visible
18 Oct ? 06:07:39 10° NW 06:10:18 43° NE 06:12:55 10° ESE visible
19 Oct ? 04:50:31 13° NE 04:50:31 13° NE 04:51:39 10° ENE visible
20 Oct ? 05:05:08 26° NE 05:05:08 26° NE 05:07:28 10° E visible
21 Oct ? 05:19:54 72° E 05:19:54 72° E 05:22:25 10° SE visible
22 Oct ? 05:34:47 26° SSW 05:34:47 26° SSW 05:36:35 10° SSE visible
